This is the latest recevied weather packets stored in our database for station/object YB3RDW-13. If no packets are shown the sender has not sent any weather packets the latest 10 day(s).
| Time | Temp. | Humidity | Pressure | Rain* | Wind** | Luminosity | Snow |
|---|---|---|---|---|---|---|---|
| 1778128017 | 33.33° C | 56% | 1012 hPa | 0 mm | - | 685 W/m² | - |
| 1778127718 | 33.33° C | 56% | 1012 hPa | 0 mm | - | 690 W/m² | - |
| 1778127419 | 32.78° C | 56% | 1011 hPa | 0 mm | - | 691 W/m² | - |
| 1778127118 | 33.33° C | 55% | 1012 hPa | 0 mm | - | 680 W/m² | - |
| 1778126817 | 32.78° C | 56% | 1012 hPa | 0 mm | - | 684 W/m² | - |
| 1778126517 | 33.33° C | 56% | 1012 hPa | 0 mm | - | 672 W/m² | - |
| 1778126218 | 32.78° C | 55% | 1012 hPa | 0 mm | - | 681 W/m² | - |
| 1778125918 | 32.78° C | 54% | 1012 hPa | 0 mm | - | 678 W/m² | - |
| 1778125618 | 33.33° C | 55% | 1012 hPa | 0 mm | - | 665 W/m² | - |
| 1778125319 | 33.33° C | 55% | 1012 hPa | 0 mm | - | 679 W/m² | - |
| 1778125017 | 33.33° C | 55% | 1012 hPa | 0 mm | - | 676 W/m² | - |
| 1778124718 | 33.33° C | 58% | 1012 hPa | 0 mm | - | 671 W/m² | - |
| 1778124418 | 33.33° C | 58% | 1012 hPa | 0 mm | - | 677 W/m² | - |
| 1778124118 | 32.78° C | 61% | 1012 hPa | 0 mm | - | 657 W/m² | - |
| 1778123817 | 32.78° C | 59% | 1012 hPa | 0 mm | - | 634 W/m² | - |
| 1778123517 | 32.78° C | 58% | 1012 hPa | 0 mm | - | 645 W/m² | - |
| 1778123217 | 32.78° C | 59% | 1012 hPa | 0 mm | - | 689 W/m² | - |
| 1778122918 | 32.22° C | 64% | 1012 hPa | 0 mm | - | 605 W/m² | - |
| 1778122617 | 32.22° C | 64% | 1012 hPa | 0 mm | - | 590 W/m² | - |
| 1778122318 | 32.22° C | 65% | 1012 hPa | 0 mm | - | 482 W/m² | - |
| 1778122018 | 32.78° C | 65% | 1013 hPa | 0 mm | - | 165 W/m² | - |
| 1778121717 | 31.67° C | 67% | 1013 hPa | 0 mm | - | 543 W/m² | - |
| 1778121421 | 31.67° C | 67% | 1013 hPa | 0 mm | - | 541 W/m² | - |
| 1778121117 | 31.11° C | 69% | 1013 hPa | 0 mm | - | 571 W/m² | - |
| 1778120817 | 31.11° C | 69% | 1013 hPa | 0 mm | - | 449 W/m² | - |
* Rain latest hour (hover to see other rain measurements)
** Current wind speed in m/s (hover to see current wind gust speed)